星链-36413(STARLINK-36413)

导读 | 豆包AI

STARLINK-36413是由美国发射的SpaceX星链卫星,发射于2026年1月9日。作为星链星座计划的组成部分,它将服务于全球高速互联网接入,尤其覆盖偏远地区与网络基础设施匮乏区域,依托低轨轨道布局,可提供低延迟网络服务,进一步扩充星链星座的全球覆盖能力与服务容量。

Basic Information
目录编号:
67338
目录名称:
STARLINK-36413
国际标识:
2026-003E
轨道中心:
EARTH
卫星名称:
星链-36413
卫星全名:
星链-36413(STARLINK-36413)
卫星状态:
在轨 (已飞行136 天)
发射日期:
2026-01-09 UTC
国别 :
美国 (US)
星等 :
--
Orbit Information
数据来源 国际轨道数据 AOE轨道数据
星历时间 2026-05-25T08:22:22+0800
9小时前
查看轨道信息
2026-05-23T01:00:00+0800
2天前
查看轨道信息
半长轴 6861.184km 6861.125km
偏心率 0.0001475 0.0000692
轨道倾角 43.002° 43.005°
近地点辐角 280.769° 312.884°
升交点赤经 156.314° 169.345°
平近点角 79.299° 304.496°
近地点 482.034km 482.513km
远地点 484.06km 483.463km
周期 94.267分钟 94.265分钟
每日圈数 15.275808 15.276007
Detailed Information
固有亮度:
5
最大亮度:
2.5
卫星平台:
Starlink V1.0
覆盖范围:
全球
运营商:
太空探索技术公司
运营商所在国:
美国
制造商(研发单位):
太空探索技术公司
制造商所在国:
美国
使用方式:
暂无
Satellite Introduction
Starlink 计划是 SpaceX 推出的全球卫星互联网项目,通过发射低轨道卫星,为全球尤其是偏远地区提供高速、低延迟的互联网服务。自 2019 年起,Starlink 已部署数千颗卫星,旨在缩小全球数字鸿沟,推动互联网普及。该项目还为军事、航空等行业提供通信支持,带来广泛经济效益。
2D Orbit Map
3D Orbit Map
Orbit Altitude Analysis Chart
Orbit Inclination Analysis Chart
Orbit Comprehensive Analysis Chart
View Comprehensive Chart